DW7854 Weather Reports


time (UTC)temp
F
wind
direction
speed
knots
gust
knots
rain 1hr
in
rain 24hr
in
rain mn
in
humidity
%
barometer
mb
20260502163827 71 45 1.7 6.1 0.00 0.00 0.00 41 1019.6
20260502163103 70 93 0.0 7.8 0.00 0.00 0.00 39 1020.0
20260502162927 70 330 3.5 7.0 0.00 0.00 0.00 38 1019.6
20260502162027 70 317 2.6 7.0 0.00 0.00 0.00 41 1019.7
20260502161503 70 333 3.5 7.8 0.00 0.00 0.00 42 1020.1
20260502160227 70 343 1.7 5.2 0.00 0.00 0.00 44 1019.7
20260502160105 69 5 0.9 5.2 0.00 0.00 0.00 47 1020.1
20260502151611 67 22 1.7 4.3 0.00 0.00 0.00 60 1019.9
20260502150106 66 47 3.5 7.0 0.00 0.00 0.00 62 1019.9
20260502140105 60 128 0.0 1.7 0.00 0.00 0.00 97 1019.8
20260502130227 53 60 0.0 0.9 0.00 0.00 0.00 97 1019.0
20260502123527 50 76 0.0 0.9 0.00 0.00 0.00 96 1018.5
20260502123003 49 76 0.0 0.0 0.00 0.00 0.00 96 1018.8
20260502122627 49 0 0.0 0.0 0.00 0.00 0.00 96 1018.3
20260502121727 49 0 0.0 0.0 0.00 0.00 0.00 96 1018.2
20260502121530 48 76 0.0 0.0 0.00 0.00 0.00 95 1018.6
20260502120827 49 19 0.0 0.9 0.00 0.00 0.00 95 1018.0
20260502120106 48 10 0.0 0.9 0.00 0.00 0.00 95 1018.4
20260502115927 49 20 0.0 0.9 0.00 0.00 0.00 95 1017.9
20260502114605 48 329 0.0 0.0 0.00 0.00 0.00 95 1018.2
20260502114127 49 0 0.0 0.0 0.00 0.00 0.00 95 1017.7
20260502113227 49 0 0.0 0.0 0.00 0.00 0.00 95 1017.7
20260502113004 49 329 0.0 0.0 0.00 0.00 0.00 95 1018.2
20260502112327 49 328 0.0 0.9 0.00 0.00 0.00 95 1017.7
20260502111625 49 329 0.0 1.7 0.00 0.00 0.00 95 1018.0
20260502111427 49 329 0.9 1.7 0.00 0.00 0.00 95 1017.5
20260502110008 49 329 0.0 0.0 0.00 0.00 0.00 95 1017.7
20260502105627 50 0 0.0 0.0 0.00 0.00 0.00 95 1017.3
20260502104727 50 328 0.0 0.9 0.00 0.00 0.00 94 1017.2
20260502104505 49 329 0.0 0.9 0.00 0.00 0.00 94 1017.7
20260502103827 50 0 0.0 0.0 0.00 0.00 0.00 95 1017.2
20260502103005 50 329 0.0 0.0 0.00 0.00 0.00 95 1017.6
20260502102927 50 0 0.0 0.0 0.00 0.00 0.00 95 1017.2
20260502101512 50 329 0.0 0.9 0.00 0.00 0.00 95 1017.4
20260502101127 50 328 0.0 0.9 0.00 0.00 0.00 95 1017.0
20260502100227 50 0 0.0 0.0 0.00 0.00 0.00 94 1017.0
20260502090105 51 329 0.0 0.0 0.00 0.00 0.00 94 1016.9
20260502080103 52 329 0.0 0.9 0.00 0.00 0.00 93 1016.7
20260502071127 54 328 0.0 0.9 0.00 0.00 0.00 93 1016.7
20260502070227 54 328 0.0 0.9 0.00 0.00 0.00 92 1016.7
20260502070019 54 329 0.0 0.9 0.00 0.00 0.00 92 1017.1
20260502065327 55 0 0.0 0.0 0.00 0.00 0.00 92 1016.8
20260502064605 55 329 0.0 0.0 0.00 0.00 0.00 93 1017.2
20260502064427 55 0 0.0 0.0 0.00 0.00 0.00 93 1016.8
20260502063527 55 0 0.0 0.0 0.00 0.00 0.00 93 1016.9
20260502063006 55 329 0.0 0.0 0.00 0.00 0.00 93 1017.3
20260502061727 55 0 0.0 0.0 0.00 0.00 0.00 92 1016.8
20260502061603 55 329 0.0 0.0 0.00 0.00 0.00 92 1017.3
20260502060827 56 0 0.0 0.0 0.00 0.00 0.00 92 1016.8
20260502060004 55 329 0.0 0.0 0.00 0.00 0.00 92 1017.3
20260502055027 56 328 0.0 0.9 0.00 0.00 0.00 92 1016.9
20260502054503 55 329 0.0 0.0 0.00 0.00 0.00 92 1017.3
20260502054127 56 0 0.0 0.0 0.00 0.00 0.00 92 1016.9
20260502053227 56 0 0.0 0.0 0.00 0.00 0.00 91 1016.9
20260502053003 56 329 0.0 0.0 0.00 0.00 0.00 91 1017.4
20260502052327 56 0 0.0 0.0 0.00 0.00 0.00 91 1016.9
20260502051607 56 329 0.0 0.0 0.00 0.00 0.00 91 1017.3
20260502051427 56 0 0.0 0.0 0.00 0.00 0.00 91 1016.9
20260502050527 56 328 0.0 0.9 0.00 0.00 0.00 91 1016.7
20260502050008 56 329 0.0 0.0 0.00 0.01 0.00 91 1017.1
20260502045627 57 0 0.0 0.0 0.00 0.00 0.00 90 1016.8
20260502044727 57 0 0.0 0.0 0.00 0.00 0.00 90 1016.7
20260502044604 56 329 0.0 0.0 0.00 0.01 0.00 90 1017.1
20260502043827 57 0 0.0 0.0 0.00 0.00 0.00 90 1016.4
20260502043004 57 329 0.0 0.0 0.00 0.01 0.00 89 1016.8
20260502042926 57 0 0.0 0.0 0.00 0.01 0.00 89 1016.4
20260502042026 57 329 0.0 0.9 0.00 0.01 0.00 88 1016.4
20260502041606 57 329 0.0 0.9 0.00 0.01 0.00 88 1016.9
20260502041126 58 328 0.0 0.9 0.00 0.01 0.00 88 1016.5
20260502040227 58 0 0.0 0.0 0.00 0.01 0.00 88 1016.5
20260502040008 58 329 0.0 0.0 0.00 0.02 0.00 88 1016.9
20260502035327 58 0 0.0 0.0 0.00 0.01 0.00 87 1016.5
20260502034504 58 329 0.0 0.0 0.00 0.02 0.00 87 1017.0
20260502034426 58 0 0.0 0.0 0.00 0.01 0.00 87 1016.6
20260502033526 59 0 0.0 0.0 0.00 0.02 0.00 87 1016.5
20260502033102 58 329 0.0 0.0 0.00 0.02 0.00 87 1017.0
20260502032627 59 0 0.0 0.0 0.00 0.02 0.00 88 1016.7
20260502031726 59 0 0.0 0.0 0.00 0.02 0.00 88 1016.6
20260502031504 58 329 0.0 0.9 0.00 0.02 0.00 88 1017.1
20260502030008 59 329 0.0 0.9 0.00 0.02 0.00 87 1016.9
20260502025926 59 328 0.0 0.9 0.00 0.02 0.00 87 1016.5
20260502025026 59 0 0.0 0.0 0.00 0.02 0.00 87 1016.3
20260502024507 59 329 0.0 0.0 0.00 0.02 0.00 86 1016.6
20260502024126 59 0 0.0 0.0 0.00 0.02 0.00 85 1016.1
20260502023226 59 0 0.0 0.0 0.00 0.02 0.00 85 1015.9
20260502023104 59 329 0.0 0.0 0.00 0.02 0.00 85 1016.3
20260502021503 59 329 0.0 0.0 0.00 0.02 0.00 84 1016.0
20260502021426 60 0 0.0 0.0 0.00 0.02 0.00 84 1015.6
20260502020526 60 0 0.0 0.0 0.00 0.02 0.00 82 1015.5
20260502015626 60 0 0.0 0.0 0.00 0.02 0.00 83 1015.4
20260502014726 61 0 0.0 0.0 0.00 0.02 0.00 82 1015.3
20260502014602 60 329 0.0 0.0 0.00 0.02 0.00 82 1015.6
20260502013826 61 0 0.0 0.0 0.00 0.02 0.00 82 1015.2
20260502013105 61 329 0.0 0.0 0.00 0.02 0.00 81 1015.4
20260502012926 61 0 0.0 0.0 0.00 0.02 0.00 81 1015.0
20260502012026 62 328 0.0 0.9 0.00 0.02 0.00 80 1014.8
20260502011508 61 329 0.0 0.0 0.00 0.02 0.00 79 1015.2
20260502011126 62 0 0.0 0.0 0.00 0.02 0.00 79 1014.7
20260502010226 62 0 0.0 0.0 0.00 0.02 0.00 78 1014.7
20260502010104 62 329 0.0 0.0 0.00 0.02 0.00 78 1015.0
20260502005326 63 0 0.0 0.0 0.00 0.02 0.00 78 1014.7
20260502004515 63 329 0.0 0.9 0.00 0.02 0.00 77 1015.0
20260502004426 63 328 0.0 0.9 0.00 0.02 0.00 77 1014.6
20260502003526 64 0 0.0 0.0 0.00 0.02 0.00 75 1014.4
20260502003009 64 329 0.0 0.9 0.00 0.02 0.00 75 1014.8
20260502002626 64 291 0.0 0.9 0.00 0.02 0.00 74 1014.4
20260502001726 65 0 0.0 0.0 0.00 0.02 0.00 72 1014.3
20260502001502 65 238 0.0 0.9 0.00 0.02 0.00 72 1014.7
20260502000826 65 0 0.0 0.0 0.00 0.02 0.00 72 1014.4
20260502000003 65 272 0.0 0.0 0.00 0.02 0.00 68 1014.8
20260501235926 66 0 0.0 0.0 0.00 0.02 0.00 68 1014.4
20260501235026 66 0 0.0 0.0 0.00 0.02 0.00 67 1014.2
20260501234504 65 267 0.0 0.0 0.00 0.02 0.00 66 1014.5
20260501234126 66 0 0.0 0.0 0.00 0.02 0.00 65 1013.9
20260501233226 66 113 0.0 0.9 0.00 0.02 0.00 63 1013.9
20260501233006 66 113 0.0 1.7 0.00 0.02 0.00 63 1014.2
20260501232326 67 136 0.9 3.5 0.00 0.02 0.00 61 1013.8
20260501231507 67 125 1.7 3.5 0.00 0.02 0.00 59 1014.3
20260501231426 67 136 0.9 4.3 0.00 0.02 0.00 59 1013.9
20260501230526 67 109 1.7 4.3 0.00 0.02 0.00 58 1013.5
20260501230004 67 123 1.7 4.3 0.00 0.02 0.00 57 1013.7
20260501225626 68 84 1.7 3.5 0.00 0.02 0.00 59 1013.2
20260501224726 68 71 1.7 7.0 0.00 0.02 0.00 56 1012.6
20260501224603 67 155 1.7 7.0 0.00 0.02 0.00 57 1012.9
20260501223826 68 91 0.9 4.3 0.00 0.02 0.00 61 1012.5
20260501223007 67 100 0.0 2.6 0.00 0.02 0.00 64 1013.2
20260501222926 67 93 0.9 2.6 0.00 0.02 0.00 63 1012.8
20260501222026 67 90 0.0 2.6 0.00 0.02 0.00 61 1012.8
20260501221507 67 75 0.0 2.6 0.00 0.02 0.00 60 1013.3
20260501221126 67 87 0.9 1.7 0.00 0.02 0.00 59 1012.9
20260501220226 67 98 1.7 6.1 0.00 0.02 0.00 58 1012.9
20260501220107 67 90 0.9 6.1 0.00 0.02 0.00 59 1013.3
20260501215326 68 85 1.7 4.3 0.00 0.02 0.00 58 1012.9
20260501214603 67 68 0.9 6.1 0.00 0.02 0.00 58 1013.2
20260501214426 68 56 0.9 6.1 0.00 0.02 0.00 58 1013.0
20260501213526 68 31 2.6 5.2 0.00 0.02 0.00 57 1013.0
20260501213114 67 54 1.7 7.0 0.00 0.02 0.00 56 1013.6
20260501212626 68 24 1.7 7.0 0.00 0.02 0.00 56 1013.2
20260501211726 68 30 2.6 10.4 0.00 0.02 0.00 55 1013.4
20260501211505 68 59 3.5 9.6 0.00 0.02 0.00 55 1013.7
20260501210826 68 17 1.7 7.0 0.00 0.02 0.00 58 1013.1
20260501210103 68 9 1.7 4.3 0.00 0.02 0.00 59 1013.2
20260501205926 68 54 1.7 4.3 0.00 0.02 0.00 61 1012.7
20260501205026 68 60 1.7 7.0 0.00 0.02 0.00 62 1012.7
20260501204607 67 46 2.6 7.0 0.00 0.02 0.00 62 1013.2
20260501204126 67 41 0.9 4.3 0.00 0.02 0.00 62 1012.8
20260501203226 67 83 1.7 7.0 0.00 0.02 0.00 61 1012.9
20260501203009 66 122 0.9 8.7 0.00 0.02 0.00 60 1013.4
20260501202326 67 44 1.7 6.1 0.00 0.02 0.00 60 1013.0
20260501201503 66 65 1.7 9.6 0.00 0.02 0.00 59 1013.4
20260501201426 67 79 3.5 11.3 0.00 0.02 0.00 59 1013.1
20260501200526 67 97 2.6 8.7 0.00 0.02 0.00 59 1013.3
20260501200107 67 132 0.9 8.7 0.00 0.02 0.00 59 1013.9
20260501195626 67 104 4.3 8.7 0.00 0.02 0.00 60 1013.7
20260501194726 68 86 3.5 13.0 0.00 0.02 0.00 55 1013.8
20260501194510 68 126 6.1 13.0 0.00 0.02 0.00 56 1014.2
20260501193826 68 69 3.5 9.6 0.00 0.02 0.00 56 1014.1
20260501193020 67 109 3.5 7.8 0.00 0.02 0.00 57 1014.8
20260501192026 68 83 3.5 9.6 0.00 0.02 0.00 56 1014.9
20260501191506 67 65 1.7 9.6 0.00 0.02 0.00 59 1015.2
20260501190226 67 94 4.3 8.7 0.00 0.02 0.00 58 1015.1
20260501190104 66 43 4.3 9.6 0.00 0.02 0.00 61 1015.6
20260501185326 66 97 4.3 11.3 0.00 0.02 0.00 60 1015.3
20260501184604 65 114 3.5 9.6 0.00 0.02 0.00 62 1015.8
20260501184426 66 35 3.5 9.6 0.00 0.02 0.00 64 1015.4
20260501183526 66 50 1.7 7.0 0.00 0.02 0.00 66 1015.5
20260501183010 64 84 1.7 6.1 0.00 0.02 0.00 68 1015.8
20260501182626 65 74 2.6 10.4 0.00 0.02 0.00 67 1015.7
20260501181726 64 104 3.5 8.7 0.00 0.02 0.00 68 1015.8
20260501181504 63 155 3.5 8.7 0.00 0.02 0.00 68 1016.4
20260501180826 63 101 1.7 7.0 0.00 0.02 0.00 68 1016.1
20260501180011 62 102 0.9 5.2 0.00 0.02 0.00 69 1016.6
20260501175926 63 88 1.7 7.0 0.00 0.02 0.00 71 1016.2
20260501175026 62 114 1.7 4.3 0.00 0.02 0.00 70 1016.2
20260501174658 62 120 1.7 4.3 0.00 0.02 0.00 70 1016.4
20260501174126 62 112 0.9 4.3 0.00 0.02 0.00 72 1016.5
20260501173106 61 355 0.0 1.7 0.00 0.02 0.00 76 1016.6
20260501172326 61 111 0.0 1.7 0.00 0.02 0.00 75 1016.5
20260501171504 61 81 0.0 1.7 0.00 0.02 0.00 74 1016.8
20260501171426 61 61 0.0 3.5 0.00 0.02 0.00 74 1016.4
20260501170526 61 100 0.0 2.6 0.00 0.02 0.00 75 1016.6
20260501170006 61 41 0.0 2.6 0.00 0.02 0.00 76 1017.2